• In Uzbekistan
  • List of Countries
  • For 7 days
  • Water Temperature
  • Satellite Maps
  • Weather Map
  • Weather Widgets
  • user-avatar
    Login

    Hourly Weather Kerns

    Today, 29 May, Monday

    Time Temperature Precipitation Wind Pressure Humidity
    00:00 +19°C° 0 mm 4 mps 761 mmHg 97%
    01:00 +19°C° 0 mm 4 mps 761 mmHg 97%
    02:00 +19°C° 0 mm 4 mps 761 mmHg 97%
    03:00 +19°C° 0 mm 4 mps 761 mmHg 97%
    04:00 +19°C° 0 mm 4 mps 761 mmHg 97%
    05:00 +19°C° 0 mm 4 mps 761 mmHg 97%
    06:00 +19°C° 0 mm 4 mps 761 mmHg 97%
    07:00 +19°C° 0 mm 4 mps 762 mmHg 97%
    08:00 +21°C° 0 mm 5 mps 762 mmHg 88%
    09:00 +25°C° 0 mm 5 mps 762 mmHg 78%
    10:00 +27°C° 0 mm 5 mps 762 mmHg 68%
    11:00 +28°C° 0 mm 5 mps 762 mmHg 63%
    12:00 +29°C° 0 mm 6 mps 761 mmHg 59%
    13:00 +30°C° 0 mm 6 mps 761 mmHg 54%
    14:00 +29°C° 0 mm 6 mps 761 mmHg 57%
    15:00 +29°C° 0 mm 6 mps 761 mmHg 59%
    16:00 +28°C° 0 mm 6 mps 760 mmHg 61%
    17:00 +26°C° 0 mm 5 mps 761 mmHg 72%
    18:00 +23°C° 0 mm 5 mps 761 mmHg 83%
    19:00 +21°C° 0 mm 5 mps 762 mmHg 93%
    20:00 +20°C° 0 mm 5 mps 762 mmHg 93%
    21:00 +20°C° 0 mm 5 mps 762 mmHg 92%
    22:00 +19°C° 0 mm 5 mps 763 mmHg 91%
    23:00 +19°C° 0 mm 5 mps 762 mmHg 91%

    Tomorrow, 30 May, Tuesday

    Time Temperature Precipitation Wind Pressure Humidity
    00:00 +19°C° 0 mm 5 mps 762 mmHg 90%
    01:00 +19°C° 0 mm 5 mps 762 mmHg 90%
    02:00 +19°C° 0 mm 5 mps 762 mmHg 90%
    03:00 +19°C° 0 mm 5 mps 761 mmHg 91%
    04:00 +19°C° 0 mm 5 mps 761 mmHg 91%
    05:00 +19°C° 0 mm 5 mps 761 mmHg 92%
    06:00 +20°C° 0 mm 5 mps 761 mmHg 92%
    07:00 +20°C° 0 mm 5 mps 762 mmHg 93%
    08:00 +22°C° 0 mm 6 mps 762 mmHg 84%
    09:00 +24°C° 0 mm 6 mps 762 mmHg 75%
    10:00 +27°C° 0 mm 6 mps 763 mmHg 67%
    11:00 +28°C° 0 mm 6 mps 762 mmHg 62%
    12:00 +29°C° 0 mm 6 mps 761 mmHg 58%
    13:00 +30°C° 0 mm 6 mps 761 mmHg 54%
    14:00 +29°C° 0 mm 6 mps 761 mmHg 57%
    15:00 +29°C° 0 mm 6 mps 760 mmHg 61%
    16:00 +28°C° 0 mm 6 mps 760 mmHg 64%
    17:00 +26°C° 0 mm 6 mps 761 mmHg 72%
    18:00 +24°C° 0 mm 6 mps 761 mmHg 81%
    19:00 +22°C° 0 mm 6 mps 762 mmHg 89%
    20:00 +22°C° 0 mm 6 mps 762 mmHg 90%
    21:00 +22°C° 0 mm 5 mps 762 mmHg 91%
    22:00 +22°C° 0 mm 5 mps 763 mmHg 91%
    23:00 +22°C° 0 mm 5 mps 762 mmHg 92%

    Day after tomorrow, 31 May, Wednesday

    Time Temperature Precipitation Wind Pressure Humidity
    00:00 +22°C° 0 mm 5 mps 762 mmHg 93%
    01:00 +23°C° 0 mm 5 mps 761 mmHg 94%
    02:00 +23°C° 0 mm 5 mps 761 mmHg 95%
    03:00 +23°C° 0 mm 6 mps 761 mmHg 95%
    04:00 +23°C° 0 mm 6 mps 760 mmHg 96%
    05:00 +23°C° 0.1 mm 6 mps 761 mmHg 95%
    06:00 +23°C° 0.1 mm 6 mps 761 mmHg 95%
    07:00 +23°C° 0.1 mm 6 mps 761 mmHg 95%
    08:00 +24°C° 0.1 mm 6 mps 762 mmHg 89%
    09:00 +26°C° 0.1 mm 6 mps 762 mmHg 83%
    10:00 +28°C° 0.1 mm 6 mps 762 mmHg 77%
    11:00 +28°C° 0.1 mm 6 mps 762 mmHg 75%
    12:00 +29°C° 0.1 mm 6 mps 761 mmHg 74%
    13:00 +29°C° 0.1 mm 6 mps 761 mmHg 72%
    14:00 +28°C° 0.1 mm 7 mps 761 mmHg 74%
    15:00 +28°C° 0.1 mm 7 mps 760 mmHg 76%
    16:00 +27°C° 0.1 mm 7 mps 760 mmHg 78%
    17:00 +26°C° 0.1 mm 7 mps 761 mmHg 82%
    18:00 +24°C° 0.1 mm 7 mps 761 mmHg 86%
    19:00 +23°C° 0.1 mm 7 mps 762 mmHg 91%
    20:00 +24°C° 0.2 mm 7 mps 762 mmHg 91%
    21:00 +24°C° 0.2 mm 7 mps 762 mmHg 92%
    22:00 +24°C° 0.2 mm 7 mps 763 mmHg 93%
    23:00 +24°C° 0.2 mm 7 mps 763 mmHg 93%

    1 June, Thursday

    Time Temperature Precipitation Wind Pressure Humidity
    00:00 +24°C° 0.2 mm 7 mps 762 mmHg 94%
    01:00 +24°C° 0.2 mm 7 mps 762 mmHg 94%
    02:00 +24°C° 0.2 mm 7 mps 762 mmHg 94%
    03:00 +23°C° 0.2 mm 7 mps 761 mmHg 94%
    04:00 +23°C° 0.2 mm 8 mps 761 mmHg 94%
    05:00 +23°C° 0.3 mm 8 mps 762 mmHg 92%
    06:00 +23°C° 0.3 mm 8 mps 762 mmHg 91%
    07:00 +23°C° 0.3 mm 8 mps 762 mmHg 90%
    08:00 +23°C° 0.3 mm 8 mps 763 mmHg 86%
    09:00 +24°C° 0.3 mm 8 mps 763 mmHg 83%
    10:00 +24°C° 0.3 mm 8 mps 763 mmHg 80%
    11:00 +24°C° 0.3 mm 8 mps 763 mmHg 80%
    12:00 +24°C° 0.3 mm 8 mps 763 mmHg 80%
    13:00 +24°C° 0.3 mm 8 mps 762 mmHg 79%
    14:00 +23°C° 0.1 mm 8 mps 762 mmHg 80%
    15:00 +23°C° 0.1 mm 8 mps 762 mmHg 80%
    16:00 +23°C° 0.1 mm 8 mps 761 mmHg 80%
    17:00 +22°C° 0.1 mm 8 mps 762 mmHg 81%
    18:00 +22°C° 0.1 mm 8 mps 762 mmHg 83%
    19:00 +22°C° 0.1 mm 8 mps 763 mmHg 84%
    20:00 +22°C° 0.2 mm 8 mps 763 mmHg 84%
    21:00 +22°C° 0.2 mm 8 mps 763 mmHg 85%
    22:00 +22°C° 0.2 mm 8 mps 764 mmHg 85%
    23:00 +22°C° 0.5 mm 8 mps 763 mmHg 85%

    2 June, Friday

    Time Temperature Precipitation Wind Pressure Humidity
    00:00 +23°C° 0.5 mm 8 mps 763 mmHg 86%
    01:00 +23°C° 0.5 mm 8 mps 762 mmHg 86%
    02:00 +23°C° 0.4 mm 8 mps 762 mmHg 87%
    03:00 +23°C° 0.4 mm 8 mps 762 mmHg 87%
    04:00 +23°C° 0.4 mm 8 mps 762 mmHg 88%
    05:00 +23°C° 0.8 mm 8 mps 762 mmHg 87%
    06:00 +23°C° 0.8 mm 7 mps 762 mmHg 87%
    07:00 +23°C° 0.8 mm 7 mps 763 mmHg 87%
    08:00 +24°C° 0.8 mm 7 mps 763 mmHg 86%
    09:00 +24°C° 0.8 mm 7 mps 763 mmHg 85%
    10:00 +26°C° 0.8 mm 7 mps 763 mmHg 84%
    11:00 +24°C° 0.7 mm 7 mps 763 mmHg 84%
    12:00 +24°C° 0.7 mm 7 mps 762 mmHg 85%
    13:00 +24°C° 0.7 mm 7 mps 762 mmHg 86%
    14:00 +24°C° 0.6 mm 7 mps 762 mmHg 85%
    15:00 +24°C° 0.6 mm 7 mps 762 mmHg 85%
    16:00 +24°C° 0.6 mm 7 mps 761 mmHg 84%
    17:00 +24°C° 0.4 mm 8 mps 762 mmHg 86%
    18:00 +23°C° 0.4 mm 8 mps 762 mmHg 88%
    19:00 +23°C° 0.4 mm 8 mps 763 mmHg 89%
    20:00 +23°C° 0.4 mm 8 mps 763 mmHg 89%
    21:00 +23°C° 0.4 mm 8 mps 763 mmHg 89%
    22:00 +23°C° 0.4 mm 8 mps 763 mmHg 89%
    23:00 +22°C° 0.3 mm 8 mps 763 mmHg 90%

    3 June, Saturday

    Time Temperature Precipitation Wind Pressure Humidity
    00:00 +22°C° 0.3 mm 8 mps 763 mmHg 90%
    01:00 +22°C° 0.3 mm 8 mps 762 mmHg 90%
    02:00 +22°C° 0 mm 8 mps 762 mmHg 89%
    03:00 +22°C° 0 mm 8 mps 762 mmHg 87%
    04:00 +22°C° 0 mm 8 mps 762 mmHg 86%
    05:00 +22°C° 0 mm 8 mps 762 mmHg 87%
    06:00 +22°C° 0 mm 7 mps 763 mmHg 87%
    07:00 +22°C° 0 mm 7 mps 763 mmHg 88%
    08:00 +22°C° 0 mm 7 mps 763 mmHg 84%
    09:00 +23°C° 0 mm 7 mps 763 mmHg 81%
    10:00 +24°C° 0 mm 7 mps 763 mmHg 77%
    11:00 +24°C° 0.1 mm 7 mps 763 mmHg 76%
    12:00 +26°C° 0.1 mm 7 mps 762 mmHg 75%
    13:00 +26°C° 0.1 mm 7 mps 762 mmHg 74%
    14:00 +26°C° 0.1 mm 7 mps 762 mmHg 74%
    15:00 +26°C° 0.1 mm 7 mps 761 mmHg 75%
    16:00 +26°C° 0.1 mm 7 mps 761 mmHg 75%
    17:00 +24°C° 0.1 mm 6 mps 762 mmHg 80%
    18:00 +23°C° 0.1 mm 6 mps 762 mmHg 84%
    19:00 +22°C° 0.1 mm 6 mps 763 mmHg 89%
    20:00 +21°C° 0.2 mm 6 mps 763 mmHg 90%
    21:00 +21°C° 0.2 mm 6 mps 763 mmHg 92%
    22:00 +21°C° 0.2 mm 6 mps 763 mmHg 94%
    23:00 +21°C° 0.2 mm 6 mps 763 mmHg 94%
    Show more